| time (UTC) | temp C | wind direction | speed KPH | gust KPH | rain 1hr cm | rain 24hr cm | rain mn cm | humidity % | barometer mb |
| 20260503012908 | 17 | 206 | 4.8 | 16.1 | 0.00 | 0.00 | 0.00 | 36 | 1009.9 |
| 20260503010838 | 16 | 171 | 1.6 | 3.2 | 0.00 | 0.00 | 0.00 | 40 | 1009.9 |
| 20260503004808 | 16 | 180 | 1.6 | 4.8 | 0.00 | 0.00 | 0.00 | 39 | 1010.1 |
| 20260503002807 | 17 | 69 | 3.2 | 4.8 | 0.00 | 0.00 | 0.00 | 37 | 1010.4 |
| 20260503000737 | 17 | 162 | 1.6 | 4.8 | 0.00 | 0.00 | 0.00 | 36 | 1010.4 |
| 20260502234707 | 17 | 149 | 1.6 | 6.4 | 0.00 | 0.00 | 0.00 | 34 | 1010.3 |
| 20260502232637 | 17 | 106 | 1.6 | 6.4 | 0.00 | 0.00 | 0.00 | 34 | 1010.5 |
| 20260502230637 | 17 | 144 | 1.6 | 3.2 | 0.00 | 0.00 | 0.00 | 34 | 1010.9 |
| 20260502224637 | 17 | 129 | 1.6 | 3.2 | 0.00 | 0.00 | 0.00 | 34 | 1011.0 |
| 20260502222637 | 18 | 115 | 3.2 | 6.4 | 0.00 | 0.00 | 0.00 | 34 | 1011.2 |
| 20260502220637 | 18 | 216 | 3.2 | 9.7 | 0.00 | 0.00 | 0.00 | 33 | 1011.1 |
| 20260502214607 | 18 | 203 | 4.8 | 12.9 | 0.00 | 0.00 | 0.00 | 34 | 1011.6 |
| 20260502212537 | 18 | 62 | 3.2 | 6.4 | 0.00 | 0.00 | 0.00 | 32 | 1011.8 |
| 20260502210507 | 17 | 49 | 3.2 | 6.4 | 0.00 | 0.00 | 0.00 | 32 | 1012.3 |
| 20260502204437 | 18 | 125 | 3.2 | 9.7 | 0.00 | 0.00 | 0.00 | 32 | 1012.7 |
| 20260502202437 | 17 | 206 | 4.8 | 12.9 | 0.00 | 0.00 | 0.00 | 30 | 1013.2 |
| 20260502200407 | 18 | 32 | 3.2 | 6.4 | 0.00 | 0.00 | 0.00 | 30 | 1013.2 |
| 20260502194337 | 17 | 164 | 4.8 | 11.3 | 0.00 | 0.00 | 0.00 | 32 | 1013.6 |
| 20260502192337 | 17 | 183 | 4.8 | 14.5 | 0.00 | 0.00 | 0.00 | 32 | 1014.2 |
| 20260502190337 | 17 | 315 | 4.8 | 6.4 | 0.00 | 0.00 | 0.00 | 32 | 1014.7 |
| 20260502184307 | 16 | 76 | 3.2 | 6.4 | 0.00 | 0.00 | 0.00 | 33 | 1014.9 |
| 20260502182347 | 15 | 34 | 3.2 | 9.7 | 0.00 | 0.00 | 0.00 | 34 | 1015.1 |
| 20260502182237 | 15 | 34 | 3.2 | 9.7 | 0.00 | 0.00 | 0.00 | 34 | 1015.1 |
| 20260502181310 | 15 | 157 | 3.2 | 6.4 | 0.00 | 0.00 | 0.00 | 33 | 1015.5 |
| 20260502180207 | 15 | 157 | 3.2 | 6.4 | 0.00 | 0.00 | 0.00 | 33 | 1015.5 |
| 20260502164007 | 13 | 93 | 3.2 | 9.7 | 0.00 | 0.00 | 0.00 | 35 | 1016.8 |
| 20260502161937 | 13 | 18 | 3.2 | 9.7 | 0.00 | 0.00 | 0.00 | 37 | 1017.1 |
| 20260502151836 | 12 | 54 | 3.2 | 9.7 | 0.00 | 0.00 | 0.00 | 40 | 1017.8 |
| 20260502123606 | 4 | 30 | 0.0 | 1.6 | 0.00 | 0.00 | 0.00 | 70 | 1018.1 |
| 20260502121536 | 3 | 30 | 1.6 | 1.6 | 0.00 | 0.00 | 0.00 | 74 | 1017.9 |
| 20260502115547 | 1 | 30 | 0.0 | 1.6 | 0.00 | 0.00 | 0.00 | 82 | 1018.0 |
| 20260502115506 | 1 | 30 | 0.0 | 1.6 | 0.00 | 0.00 | 0.00 | 82 | 1018.0 |
| 20260502113436 | 0 | 0 | 0.0 | 0.0 | 0.00 | 0.00 | 0.00 | 83 | 1017.8 |
| 20260502111406 | 0 | 0 | 0.0 | 0.0 | 0.00 | 0.00 | 0.00 | 83 | 1017.9 |
| 20260502105336 | 0 | 30 | 0.0 | 1.6 | 0.00 | 0.00 | 0.00 | 84 | 1017.7 |
| 20260502103336 | 0 | 0 | 0.0 | 0.0 | 0.00 | 0.00 | 0.00 | 82 | 1017.8 |
| 20260502101336 | 0 | 0 | 0.0 | 0.0 | 0.00 | 0.00 | 0.00 | 82 | 1017.8 |
| 20260502091504 | 1 | 0 | 0.0 | 0.0 | 0.00 | 0.00 | 0.00 | 79 | 1017.7 |
| 20260502091235 | 1 | 0 | 0.0 | 0.0 | 0.00 | 0.00 | 0.00 | 79 | 1017.7 |
| 20260502071005 | 2 | 0 | 0.0 | 0.0 | 0.00 | 0.00 | 0.00 | 75 | 1017.8 |
| 20260502065009 | 2 | 0 | 0.0 | 0.0 | 0.00 | 0.00 | 0.00 | 74 | 1018.1 |
| 20260502064935 | 2 | 0 | 0.0 | 0.0 | 0.00 | 0.00 | 0.00 | 74 | 1018.1 |
| 20260502062905 | 2 | 30 | 0.0 | 1.6 | 0.00 | 0.00 | 0.00 | 74 | 1018.0 |
| 20260502060835 | 2 | 30 | 0.0 | 1.6 | 0.00 | 0.00 | 0.00 | 73 | 1018.1 |
| 20260502054805 | 2 | 0 | 0.0 | 0.0 | 0.00 | 0.00 | 0.00 | 72 | 1018.0 |
| 20260502052807 | 2 | 0 | 0.0 | 0.0 | 0.00 | 0.00 | 0.00 | 71 | 1018.2 |
| 20260502052735 | 2 | 0 | 0.0 | 0.0 | 0.00 | 0.00 | 0.00 | 71 | 1018.2 |
| 20260502050705 | 3 | 0 | 0.0 | 0.0 | 0.00 | 0.00 | 0.00 | 69 | 1017.9 |
| 20260502044706 | 3 | 0 | 0.0 | 0.0 | 0.00 | 0.00 | 0.00 | 67 | 1017.9 |
| 20260502044635 | 3 | 0 | 0.0 | 0.0 | 0.00 | 0.00 | 0.00 | 67 | 1017.9 |
| 20260502042642 | 3 | 0 | 0.0 | 0.0 | 0.00 | 0.00 | 0.00 | 66 | 1018.0 |
| 20260502042605 | 3 | 0 | 0.0 | 0.0 | 0.00 | 0.00 | 0.00 | 66 | 1018.0 |
| 20260502040535 | 3 | 0 | 0.0 | 0.0 | 0.00 | 0.00 | 0.00 | 65 | 1018.0 |
| 20260502034505 | 4 | 0 | 0.0 | 0.0 | 0.00 | 0.00 | 0.00 | 63 | 1018.3 |
| 20260502032435 | 4 | 0 | 0.0 | 0.0 | 0.00 | 0.00 | 0.00 | 61 | 1018.3 |
| 20260502030405 | 5 | 0 | 0.0 | 0.0 | 0.00 | 0.00 | 0.00 | 57 | 1018.1 |
| 20260502024335 | 5 | 0 | 0.0 | 0.0 | 0.00 | 0.00 | 0.00 | 55 | 1018.0 |
| 20260502022306 | 6 | 0 | 0.0 | 0.0 | 0.00 | 0.00 | 0.00 | 51 | 1017.9 |
| 20260502020235 | 6 | 0 | 0.0 | 0.0 | 0.00 | 0.00 | 0.00 | 47 | 1017.9 |